Zurück zum Katalog

CZ-6A DEB

AktivSSO
NORAD 54300·DEBRIS·🇨🇳 China

Gestartet Nov 11, 2022 von Taiyuan Satellite Launch Center

Loading…

Nächste Überflüge (nächste 24 Stunden)

TLE

AktuellSource: Space-Track

Epoche: Sep 13, 2026, 00:10 UTC

1 54300U 22151AT  26256.00706269  .00000414  00000-0  25011-3 0  9995
2 54300  98.8958 265.5245 0058899  67.8665 292.8743 14.11062894196745

Verfolge CZ-6A DEB in Echtzeit mit AllMySat

Download on the App Store